Home   Weather   Plzen   Past weeks

Flag for Czech Republic Past Weather in Plzen, Czech Republic — Yesterday and Last 2 Weeks

Now
41 °F

Quite cool.


Feels Like: 41 °F
Forecast: 35 / 58 °F
Wind: 2 mph from Northeast

Location: Kocelovice

Current Time: Apr 30, 2017 at 1:34:09 am

Latest Report: Apr 30, 2017 at 12:00 am


Visibility: 13 mi

Pressure: 30.09 "Hg

Humidity: 87%

Dew Point: 38 °F

Location of PlzenLocation

Past Weather in Plzen — Graph

°F

Plzen Temperature Yesterday

Maximum temperature yesterday: 49 °F (at 3:00 pm)
Minimum temperature yesterday: 35 °F (at 5:00 am)
Average temperature yesterday: 43 °F

High & Low Weather Summary for the Past Weeks

 TemperatureHumidityPressure
High60 °F (Apr 25, 3:00 pm)100% (Apr 27, 5:00 am)30.57 "Hg (Apr 27, 5:00 am)
Low27 °F (Apr 21, 6:00 am)38% (Apr 21, 6:00 pm)29.67 "Hg (Apr 25, 3:00 pm)
Average40 °F76%30.08 "Hg
* Reported Apr 15 12:00 am — Apr 30 12:00 am, Plzen, Weather by CustomWeather, © 2017

Note: Actual official high and low records may vary slightly from our data, if they occured in-between our weather recording intervals... More about our weather records

Advertising

Plzen Weather History for the Previous 24 Hours

Scroll right to see more
 ConditionsComfort  
Time TempWeatherWind HumidityBarometerVisibility
12:00 am
Sun, Apr 30
41 °FQuite cool.2 mph87%30.09 "Hg12 mi
11:00 pm
Sat, Apr 29
44 °FQuite cool.1 mph74%30.08 "Hg12 mi
10:00 pm44 °FOvercast.1 mph73%30.08 "Hg16 mi
9:00 pm45 °FOvercast.1 mph70%30.07 "Hg19 mi
8:00 pm46 °FOvercast.3 mph65%30.05 "Hg22 mi
7:00 pm48 °FOvercast.3 mph58%30.04 "Hg19 mi
6:00 pm49 °FOvercast.5 mph62%30.03 "Hg16 mi
5:00 pm49 °FOvercast.7 mph53%30.03 "Hg16 mi
4:00 pm49 °FOvercast.5 mph57%30.03 "Hg16 mi
3:00 pm49 °FPartly sunny.6 mph55%30.03 "Hg22 mi
2:00 pm48 °FPartly sunny.7 mph64%30.04 "Hg19 mi
1:00 pm47 °FPartly sunny.6 mph64%30.04 "Hg14 mi
12:00 pm46 °FSprinkles. Overcast.7 mph74%30.06 "Hg12 mi
11:00 am46 °FPartly sunny.6 mph72%30.06 "Hg12 mi
10:00 am44 °FPartly sunny.6 mph80%30.07 "Hg9 mi
9:00 am42 °FFog.3 mph84%30.07 "Hg5 mi
8:00 am39 °FFog.N/A89%30.08 "Hg4 mi
7:00 am36 °FFog.3 mph93%30.08 "Hg3 mi
6:00 am35 °FFog.3 mph97%30.08 "Hg2 mi
5:00 am35 °FFog.2 mph97%30.06 "Hg2 mi
4:00 am35 °FFog.1 mph97%30.06 "Hg2 mi
3:00 am35 °FFog.1 mph97%30.04 "Hg3 mi
2:00 am35 °FFog.2 mph98%30.05 "Hg2 mi
1:00 am36 °FFog.3 mph97%30.04 "Hg2 mi
Weather by CustomWeather, © 2017

See weather overviewHow to use our weather pages